Time,TemperatureF,DewpointF,PressureIn,WindDirection,WindDirectionDegrees,WindSpeedMPH,WindSpeedGustMPH,Humidity,HourlyPrecipIn,Conditions,Clouds,dailyrainin,SoftwareType,DateUTC
2013-11-11 00:00:00,63.7,33.2,30.06,ENE,68,0.2,0.2,32,0.00,,,0.00,WUHU216HW,2013-11-11 07:00:00,
2013-11-11 00:05:00,63.7,33.2,30.06,NNE,23,0.0,0.2,32,0.00,,,0.00,WUHU216HW,2013-11-11 07:05:00,
2013-11-11 00:10:00,63.7,33.2,30.06,NNE,23,0.0,0.2,32,0.00,,,0.00,WUHU216HW,2013-11-11 07:10:00,
2013-11-11 00:30:00,62.5,32.8,30.06,SE,135,0.9,0.9,33,0.00,,,0.00,WUHU216HW,2013-11-11 07:30:00,
2013-11-11 00:36:00,62.5,32.8,30.06,SE,135,1.1,1.1,33,0.00,,,0.00,WUHU216HW,2013-11-11 07:36:00,
2013-11-11 00:40:00,62.5,32.8,30.06,SE,135,1.1,1.1,33,0.00,,,0.00,WUHU216HW,2013-11-11 07:40:00,
2013-11-11 01:00:00,61.4,32.5,30.06,South,180,0.9,0.9,34,0.00,,,0.00,WUHU216HW,2013-11-11 08:00:00,
2013-11-11 01:05:00,61.2,32.4,30.06,South,180,0.9,1.3,34,0.00,,,0.00,WUHU216HW,2013-11-11 08:05:00,
2013-11-11 01:10:00,61.2,32.4,30.06,South,180,0.9,1.3,34,0.00,,,0.00,WUHU216HW,2013-11-11 08:10:00,
2013-11-11 01:30:00,60.5,33.2,30.06,East,90,1.1,1.1,36,0.00,,,0.00,WUHU216HW,2013-11-11 08:30:00,
2013-11-11 01:35:00,60.5,33.2,30.06,NE,45,1.3,1.3,36,0.00,,,0.00,WUHU216HW,2013-11-11 08:35:00,
2013-11-11 01:40:00,60.5,33.2,30.06,NE,45,1.3,1.3,36,0.00,,,0.00,WUHU216HW,2013-11-11 08:40:00,
2013-11-11 02:00:00,61.2,33.1,30.05,SE,135,1.8,1.8,35,0.00,,,0.00,WUHU216HW,2013-11-11 09:00:00,
2013-11-11 02:05:00,61.2,33.1,30.05,ESE,113,2.5,2.5,35,0.00,,,0.00,WUHU216HW,2013-11-11 09:05:00,
2013-11-11 02:10:00,61.2,33.1,30.05,ESE,113,2.5,2.5,35,0.00,,,0.00,WUHU216HW,2013-11-11 09:10:00,
2013-11-11 02:30:00,59.8,32.6,30.05,East,90,4.0,4.0,36,0.00,,,0.00,WUHU216HW,2013-11-11 09:30:00,
2013-11-11 02:35:00,59.8,33.3,30.05,East,90,4.0,4.0,37,0.00,,,0.00,WUHU216HW,2013-11-11 09:35:00,
2013-11-11 02:40:00,59.8,33.3,30.05,East,90,4.0,4.0,37,0.00,,,0.00,WUHU216HW,2013-11-11 09:40:00,
2013-11-11 03:00:00,59.6,33.1,30.04,East,90,3.8,3.8,37,0.00,,,0.00,WUHU216HW,2013-11-11 10:00:00,
2013-11-11 03:05:00,59.6,33.1,30.04,East,90,4.0,4.0,37,0.00,,,0.00,WUHU216HW,2013-11-11 10:05:00,
2013-11-11 03:10:00,59.6,33.1,30.04,East,90,4.0,4.0,37,0.00,,,0.00,WUHU216HW,2013-11-11 10:10:00,
2013-11-11 03:30:00,59.2,32.8,30.04,East,90,2.5,2.5,37,0.00,,,0.00,WUHU216HW,2013-11-11 10:30:00,
2013-11-11 03:35:00,59.2,32.8,30.04,East,90,1.8,2.5,37,0.00,,,0.00,WUHU216HW,2013-11-11 10:35:00,
2013-11-11 03:40:00,59.2,32.8,30.04,East,90,1.8,2.5,37,0.00,,,0.00,WUHU216HW,2013-11-11 10:40:00,
2013-11-11 04:00:00,59.0,33.3,30.03,East,90,1.6,1.6,38,0.00,,,0.00,WUHU216HW,2013-11-11 11:00:00,
2013-11-11 04:05:00,59.0,33.3,30.03,East,90,1.6,1.6,38,0.00,,,0.00,WUHU216HW,2013-11-11 11:05:00,
2013-11-11 04:10:00,59.0,33.3,30.03,East,90,1.6,1.6,38,0.00,,,0.00,WUHU216HW,2013-11-11 11:10:00,
2013-11-11 04:30:00,58.5,32.9,30.04,SW,225,0.4,0.4,38,0.00,,,0.00,WUHU216HW,2013-11-11 11:30:00,
2013-11-11 04:35:00,58.5,32.9,30.04,South,180,0.9,1.3,38,0.00,,,0.00,WUHU216HW,2013-11-11 11:35:00,
2013-11-11 04:40:00,58.5,32.9,30.04,South,180,0.9,1.3,38,0.00,,,0.00,WUHU216HW,2013-11-11 11:40:00,
2013-11-11 05:00:00,58.1,33.2,30.04,ENE,68,1.1,1.1,39,0.00,,,0.00,WUHU216HW,2013-11-11 12:00:00,
2013-11-11 05:05:00,58.1,33.2,30.04,ENE,68,1.1,1.6,39,0.00,,,0.00,WUHU216HW,2013-11-11 12:05:00,
2013-11-11 05:10:00,58.1,33.2,30.04,ENE,68,1.1,1.6,39,0.00,,,0.00,WUHU216HW,2013-11-11 12:10:00,
2013-11-11 05:30:00,59.0,34.0,30.04,NE,45,1.1,1.1,39,0.00,,,0.00,WUHU216HW,2013-11-11 12:30:00,
2013-11-11 05:35:00,58.9,33.8,30.04,ENE,68,1.3,1.3,39,0.00,,,0.00,WUHU216HW,2013-11-11 12:35:00,
2013-11-11 05:40:00,58.9,33.8,30.04,ENE,68,1.3,1.3,39,0.00,,,0.00,WUHU216HW,2013-11-11 12:40:00,
2013-11-11 06:00:00,58.7,33.0,30.05,ESE,113,2.0,2.0,38,0.00,,,0.00,WUHU216HW,2013-11-11 13:00:00,
2013-11-11 06:05:00,58.7,33.0,30.05,ESE,113,2.5,2.5,38,0.00,,,0.00,WUHU216HW,2013-11-11 13:05:00,
2013-11-11 06:10:00,58.7,33.0,30.05,ESE,113,2.5,2.5,38,0.00,,,0.00,WUHU216HW,2013-11-11 13:10:00,
2013-11-11 06:31:00,56.5,32.5,30.05,East,90,2.5,2.5,40,0.00,,,0.00,WUHU216HW,2013-11-11 13:31:00,
2013-11-11 06:36:00,56.5,32.5,30.05,East,90,2.0,2.5,40,0.00,,,0.00,WUHU216HW,2013-11-11 13:36:00,
2013-11-11 06:41:00,56.5,32.5,30.05,East,90,2.0,2.5,40,0.00,,,0.00,WUHU216HW,2013-11-11 13:41:00,
2013-11-11 06:59:00,55.8,32.4,30.06,ESE,113,2.2,2.2,41,0.00,,,0.00,WUHU216HW,2013-11-11 13:59:00,
2013-11-11 07:04:00,55.8,32.4,30.06,East,90,2.7,3.4,41,0.00,,,0.00,WUHU216HW,2013-11-11 14:04:00,
2013-11-11 07:09:00,55.8,32.4,30.06,East,90,2.7,3.4,41,0.00,,,0.00,WUHU216HW,2013-11-11 14:09:00,
2013-11-11 07:30:00,56.2,32.7,30.06,SSE,158,1.1,1.1,41,0.00,,,0.00,WUHU216HW,2013-11-11 14:30:00,
2013-11-11 07:35:00,56.3,32.9,30.06,SSE,158,0.9,1.1,41,0.00,,,0.00,WUHU216HW,2013-11-11 14:35:00,
2013-11-11 07:40:00,56.3,32.9,30.06,SSE,158,0.9,1.1,41,0.00,,,0.00,WUHU216HW,2013-11-11 14:40:00,
2013-11-11 07:59:00,57.8,34.2,30.07,SW,225,0.7,0.7,41,0.00,,,0.00,WUHU216HW,2013-11-11 14:59:00,
2013-11-11 08:04:00,57.8,34.2,30.07,SW,225,1.1,1.1,41,0.00,,,0.00,WUHU216HW,2013-11-11 15:04:00,
2013-11-11 08:09:00,57.8,34.2,30.07,SW,225,1.1,1.1,41,0.00,,,0.00,WUHU216HW,2013-11-11 15:09:00,
2013-11-11 08:30:00,60.3,35.9,30.08,NNW,338,0.9,0.9,40,0.00,,,0.00,WUHU216HW,2013-11-11 15:30:00,
2013-11-11 08:35:00,60.5,35.3,30.08,North,0,1.8,1.8,39,0.00,,,0.00,WUHU216HW,2013-11-11 15:35:00,
2013-11-11 08:40:00,60.5,35.3,30.08,North,0,1.8,1.8,39,0.00,,,0.00,WUHU216HW,2013-11-11 15:40:00,
2013-11-11 09:00:00,63.2,37.0,30.08,WSW,248,1.3,1.3,38,0.00,,,0.00,WUHU216HW,2013-11-11 16:00:00,
2013-11-11 09:05:00,63.2,37.0,30.08,West,270,1.6,1.6,38,0.00,,,0.00,WUHU216HW,2013-11-11 16:05:00,
2013-11-11 09:10:00,63.2,37.0,30.08,West,270,1.6,1.6,38,0.00,,,0.00,WUHU216HW,2013-11-11 16:10:00,
2013-11-11 09:30:00,65.9,38.0,30.08,SW,225,1.1,1.1,36,0.00,,,0.00,WUHU216HW,2013-11-11 16:30:00,
2013-11-11 09:35:00,65.9,38.0,30.08,WSW,248,2.0,2.0,36,0.00,,,0.00,WUHU216HW,2013-11-11 16:35:00,
2013-11-11 09:40:00,65.9,38.0,30.08,WSW,248,2.0,2.0,36,0.00,,,0.00,WUHU216HW,2013-11-11 16:40:00,
2013-11-11 10:00:00,67.5,38.0,30.08,WSW,248,3.4,3.4,34,0.00,,,0.00,WUHU216HW,2013-11-11 17:00:00,
2013-11-11 10:05:00,67.7,38.1,30.08,WSW,248,2.0,3.4,34,0.00,,,0.00,WUHU216HW,2013-11-11 17:05:00,
2013-11-11 10:10:00,67.7,38.1,30.08,WSW,248,2.0,3.4,34,0.00,,,0.00,WUHU216HW,2013-11-11 17:10:00,
2013-11-11 10:30:00,70.2,38.9,30.08,SW,225,1.8,1.8,32,0.00,,,0.00,WUHU216HW,2013-11-11 17:30:00,
2013-11-11 10:35:00,70.2,38.9,30.08,WSW,248,2.9,2.9,32,0.00,,,0.00,WUHU216HW,2013-11-11 17:35:00,
2013-11-11 10:40:00,70.2,38.9,30.08,WSW,248,2.9,2.9,32,0.00,,,0.00,WUHU216HW,2013-11-11 17:40:00,
2013-11-11 11:00:00,72.5,39.4,30.08,WNW,293,1.6,1.6,30,0.00,,,0.00,WUHU216HW,2013-11-11 18:00:00,
2013-11-11 11:05:00,72.7,39.6,30.08,West,270,3.8,3.8,30,0.00,,,0.00,WUHU216HW,2013-11-11 18:05:00,
2013-11-11 11:10:00,72.7,39.6,30.08,West,270,3.8,3.8,30,0.00,,,0.00,WUHU216HW,2013-11-11 18:10:00,
2013-11-11 11:30:00,75.4,39.9,30.07,WSW,248,0.4,0.4,28,0.00,,,0.00,WUHU216HW,2013-11-11 18:30:00,
2013-11-11 11:35:00,75.6,40.1,30.07,SSW,203,2.5,2.5,28,0.00,,,0.00,WUHU216HW,2013-11-11 18:35:00,
2013-11-11 11:40:00,75.6,40.1,30.07,SSW,203,2.5,2.5,28,0.00,,,0.00,WUHU216HW,2013-11-11 18:40:00,
2013-11-11 12:00:00,78.1,40.1,30.06,WSW,248,4.0,4.0,26,0.00,,,0.00,WUHU216HW,2013-11-11 19:00:00,
2013-11-11 12:05:00,78.3,40.2,30.06,West,270,3.4,4.0,26,0.00,,,0.00,WUHU216HW,2013-11-11 19:05:00,
2013-11-11 12:10:00,78.3,40.2,30.06,West,270,3.4,4.0,26,0.00,,,0.00,WUHU216HW,2013-11-11 19:10:00,
2013-11-11 12:30:00,80.6,40.1,30.05,WSW,248,4.7,4.7,24,0.00,,,0.00,WUHU216HW,2013-11-11 19:30:00,
2013-11-11 12:35:00,80.6,41.2,30.05,SW,225,2.5,8.9,25,0.00,,,0.00,WUHU216HW,2013-11-11 19:35:00,
2013-11-11 12:40:00,80.6,41.2,30.05,SW,225,2.5,8.9,25,0.00,,,0.00,WUHU216HW,2013-11-11 19:40:00,
2013-11-11 13:00:00,81.9,40.1,30.03,NW,315,4.5,4.5,23,0.00,,,0.00,WUHU216HW,2013-11-11 20:00:00,
2013-11-11 13:05:00,82.1,40.3,30.04,West,270,4.3,5.8,23,0.00,,,0.00,WUHU216HW,2013-11-11 20:05:00,
2013-11-11 13:10:00,82.1,40.3,30.04,West,270,4.3,5.8,23,0.00,,,0.00,WUHU216HW,2013-11-11 20:10:00,
2013-11-11 13:30:00,84.1,40.9,30.03,SSW,203,3.8,3.8,22,0.00,,,0.00,WUHU216HW,2013-11-11 20:30:00,
2013-11-11 13:35:00,84.1,39.8,30.03,West,270,6.5,6.5,21,0.00,,,0.00,WUHU216HW,2013-11-11 20:35:00,
2013-11-11 13:40:00,84.1,39.8,30.03,West,270,6.5,6.5,21,0.00,,,0.00,WUHU216HW,2013-11-11 20:40:00,
2013-11-11 14:00:00,84.6,40.2,30.02,West,270,3.1,3.1,21,0.00,,,0.00,WUHU216HW,2013-11-11 21:00:00,
2013-11-11 14:05:00,84.6,40.2,30.02,WSW,248,7.2,7.2,21,0.00,,,0.00,WUHU216HW,2013-11-11 21:05:00,
2013-11-11 14:10:00,84.6,40.2,30.02,WSW,248,7.2,7.2,21,0.00,,,0.00,WUHU216HW,2013-11-11 21:10:00,
2013-11-11 14:30:00,85.0,37.7,30.02,West,270,7.8,7.8,19,0.00,,,0.00,WUHU216HW,2013-11-11 21:30:00,
2013-11-11 14:35:00,85.0,37.7,30.02,WSW,248,4.7,8.7,19,0.00,,,0.00,WUHU216HW,2013-11-11 21:35:00,
2013-11-11 14:41:00,85.0,37.7,30.02,WSW,248,4.7,8.7,19,0.00,,,0.00,WUHU216HW,2013-11-11 21:41:00,
2013-11-11 15:00:00,85.5,38.2,30.03,WSW,248,6.7,6.7,19,0.00,,,0.00,WUHU216HW,2013-11-11 22:00:00,
2013-11-11 15:05:00,85.3,36.4,30.03,NW,315,4.3,6.9,18,0.00,,,0.00,WUHU216HW,2013-11-11 22:05:00,
2013-11-11 15:10:00,85.3,36.4,30.03,NW,315,4.3,6.9,18,0.00,,,0.00,WUHU216HW,2013-11-11 22:10:00,
2013-11-11 15:31:00,85.3,38.1,30.03,West,270,9.2,9.2,19,0.00,,,0.00,WUHU216HW,2013-11-11 22:31:00,
2013-11-11 15:36:00,85.3,36.4,30.03,WNW,293,10.5,10.5,18,0.00,,,0.00,WUHU216HW,2013-11-11 22:36:00,
2013-11-11 15:41:00,85.3,36.4,30.03,WNW,293,10.5,10.5,18,0.00,,,0.00,WUHU216HW,2013-11-11 22:41:00,
2013-11-11 16:00:00,84.8,37.6,30.03,WNW,293,6.9,6.9,19,0.00,,,0.00,WUHU216HW,2013-11-11 23:00:00,
2013-11-11 16:05:00,84.6,37.4,30.03,NW,315,3.8,6.9,19,0.00,,,0.00,WUHU216HW,2013-11-11 23:05:00,
2013-11-11 16:10:00,84.6,37.4,30.03,NW,315,3.8,6.0,19,0.00,,,0.00,WUHU216HW,2013-11-11 23:10:00,
2013-11-11 16:30:00,84.2,37.2,30.03,NW,315,6.9,6.9,19,0.00,,,0.00,WUHU216HW,2013-11-11 23:30:00,
2013-11-11 16:35:00,84.2,37.2,30.03,WNW,293,4.9,6.9,19,0.00,,,0.00,WUHU216HW,2013-11-11 23:35:00,
2013-11-11 16:40:00,84.2,37.2,30.03,WNW,293,4.9,6.9,19,0.00,,,0.00,WUHU216HW,2013-11-11 23:40:00,
2013-11-11 17:00:00,82.6,38.6,30.03,NNW,338,6.0,6.0,21,0.00,,,0.00,WUHU216HW,2013-11-12 00:00:00,
2013-11-11 17:05:00,82.4,38.5,30.04,WNW,293,6.0,6.5,21,0.00,,,0.00,WUHU216HW,2013-11-12 00:05:00,
2013-11-11 17:10:00,82.4,38.5,30.04,WNW,293,6.0,6.5,21,0.00,,,0.00,WUHU216HW,2013-11-12 00:10:00,
2013-11-11 17:30:00,79.7,37.3,30.04,WNW,293,4.9,4.9,22,0.00,,,0.00,WUHU216HW,2013-11-12 00:30:00,
2013-11-11 17:35:00,79.7,37.3,30.04,NW,315,5.1,6.3,22,0.00,,,0.00,WUHU216HW,2013-11-12 00:35:00,
2013-11-11 17:40:00,79.7,37.3,30.04,NW,315,5.1,6.3,22,0.00,,,0.00,WUHU216HW,2013-11-12 00:40:00,
2013-11-11 18:00:00,77.8,37.7,30.05,WNW,293,4.5,4.5,24,0.00,,,0.00,WUHU216HW,2013-11-12 01:00:00,
2013-11-11 18:05:00,77.8,37.7,30.05,WSW,248,4.3,4.7,24,0.00,,,0.00,WUHU216HW,2013-11-12 01:05:00,
2013-11-11 18:10:00,77.8,37.7,30.05,WSW,248,4.3,4.7,24,0.00,,,0.00,WUHU216HW,2013-11-12 01:10:00,
2013-11-11 18:30:00,75.8,37.1,30.05,NNW,338,0.4,0.4,25,0.00,,,0.00,WUHU216HW,2013-11-12 01:30:00,
2013-11-11 18:31:00,75.8,37.1,30.05,NE,45,1.8,1.8,25,0.00,,,0.00,WUHU216HW,2013-11-12 01:31:00,
2013-11-11 18:35:00,75.8,37.1,30.05,NE,45,1.8,1.8,25,0.00,,,0.00,WUHU216HW,2013-11-12 01:35:00,
2013-11-11 18:40:00,75.8,37.1,30.05,NE,45,1.8,1.8,25,0.00,,,0.00,WUHU216HW,2013-11-12 01:40:00,
2013-11-11 19:00:00,73.8,36.5,30.06,North,0,0.9,0.9,26,0.00,,,0.00,WUHU216HW,2013-11-12 02:00:00,
2013-11-11 19:05:00,73.6,36.3,30.06,North,0,0.0,0.9,26,0.00,,,0.00,WUHU216HW,2013-11-12 02:05:00,
2013-11-11 19:10:00,73.6,36.3,30.06,North,0,0.0,0.9,26,0.00,,,0.00,WUHU216HW,2013-11-12 02:10:00,
2013-11-11 19:30:00,72.2,37.1,30.07,NNW,338,1.1,1.1,28,0.00,,,0.00,WUHU216HW,2013-11-12 02:30:00,
2013-11-11 19:31:00,72.2,37.1,30.07,North,0,1.1,1.1,28,0.00,,,0.00,WUHU216HW,2013-11-12 02:31:00,
2013-11-11 19:35:00,72.2,37.1,30.07,North,0,1.1,1.3,28,0.00,,,0.00,WUHU216HW,2013-11-12 02:35:00,
2013-11-11 19:41:00,72.2,37.1,30.07,North,0,1.1,1.3,28,0.00,,,0.00,WUHU216HW,2013-11-12 02:41:00,
2013-11-11 20:00:00,71.6,36.6,30.07,North,0,0.4,0.4,28,0.00,,,0.00,WUHU216HW,2013-11-12 03:00:00,
2013-11-11 20:05:00,71.6,36.6,30.07,ENE,68,2.5,2.5,28,0.00,,,0.00,WUHU216HW,2013-11-12 03:05:00,
2013-11-11 20:10:00,71.6,36.6,30.07,ENE,68,2.5,2.5,28,0.00,,,0.00,WUHU216HW,2013-11-12 03:10:00,
2013-11-11 20:31:00,70.7,33.9,30.08,WSW,248,1.6,1.6,26,0.00,,,0.00,WUHU216HW,2013-11-12 03:31:00,
2013-11-11 20:36:00,70.6,33.7,30.08,SW,225,1.3,1.6,26,0.00,,,0.00,WUHU216HW,2013-11-12 03:36:00,
2013-11-11 20:41:00,70.6,33.7,30.08,SW,225,1.3,1.6,26,0.00,,,0.00,WUHU216HW,2013-11-12 03:41:00,
2013-11-11 21:00:00,71.1,36.2,30.08,NNE,23,2.2,2.2,28,0.00,,,0.00,WUHU216HW,2013-11-12 04:00:00,
2013-11-11 21:05:00,71.3,36.4,30.08,NNE,23,1.6,2.2,28,0.00,,,0.00,WUHU216HW,2013-11-12 04:05:00,
2013-11-11 21:10:00,71.3,36.4,30.08,NNE,23,1.6,2.2,28,0.00,,,0.00,WUHU216HW,2013-11-12 04:10:00,
2013-11-11 21:31:00,70.6,35.7,30.10,South,180,0.0,0.0,28,0.00,,,0.00,WUHU216HW,2013-11-12 04:31:00,
2013-11-11 21:36:00,70.6,35.7,30.09,South,180,0.0,0.0,28,0.00,,,0.00,WUHU216HW,2013-11-12 04:36:00,
2013-11-11 21:41:00,70.6,35.7,30.09,South,180,0.0,0.0,28,0.00,,,0.00,WUHU216HW,2013-11-12 04:41:00,
2013-11-11 22:00:00,69.5,35.7,30.10,East,90,1.8,1.8,29,0.00,,,0.00,WUHU216HW,2013-11-12 05:00:00,
2013-11-11 22:01:00,69.5,35.7,30.09,East,90,1.3,1.8,29,0.00,,,0.00,WUHU216HW,2013-11-12 05:01:00,
2013-11-11 22:02:00,69.5,35.7,30.09,East,90,1.3,1.8,29,0.00,,,0.00,WUHU216HW,2013-11-12 05:02:00,
2013-11-11 22:07:00,69.5,35.7,30.09,East,90,1.3,1.8,29,0.00,,,0.00,WUHU216HW,2013-11-12 05:07:00,
2013-11-11 22:31:00,69.8,35.1,30.09,ENE,68,1.3,1.3,28,0.00,,,0.00,WUHU216HW,2013-11-12 05:31:00,
2013-11-11 22:36:00,69.8,35.1,30.09,ENE,68,0.7,1.3,28,0.00,,,0.00,WUHU216HW,2013-11-12 05:36:00,
2013-11-11 22:41:00,69.8,35.1,30.09,ENE,68,0.7,1.3,28,0.00,,,0.00,WUHU216HW,2013-11-12 05:41:00,
2013-11-11 23:00:00,68.2,34.7,30.10,ESE,113,2.2,2.2,29,0.00,,,0.00,WUHU216HW,2013-11-12 06:00:00,
2013-11-11 23:05:00,68.0,34.5,30.10,NNE,23,2.5,2.5,29,0.00,,,0.00,WUHU216HW,2013-11-12 06:05:00,
2013-11-11 23:10:00,68.0,34.5,30.10,NNE,23,2.5,2.5,29,0.00,,,0.00,WUHU216HW,2013-11-12 06:10:00,
2013-11-11 23:31:00,66.4,34.9,30.10,East,90,1.1,1.1,31,0.00,,,0.00,WUHU216HW,2013-11-12 06:31:00,
2013-11-11 23:36:00,66.4,34.9,30.10,ENE,68,1.6,2.0,31,0.00,,,0.00,WUHU216HW,2013-11-12 06:36:00,
2013-11-11 23:41:00,66.4,34.9,30.10,ENE,68,1.6,2.0,31,0.00,,,0.00,WUHU216HW,2013-11-12 06:41:00,